Location: Arboucave
(43.6130°N, 0.4343°W)
Time: 11:32:15
(UTC+00:00)

BREEZE-M DEB (TANK) - Pass Details

Date: 17 November 2025
Orbit: 274 x 13339 km, 49.5° (Epoch: 10 December)

Event Time Altitude Azimuth Distance (km) Brightness Sun altitude
Rises 17:47:00 0° 245° (WSW) 1,983 7.5 -13.1°
Reaches altitude 10° 17:48:20 10° 247° (WSW) 1,310 6.2 -13.4°
Maximum altitude 17:50:47 82° 336° (NNW) 523 2.7 -13.8°
Enters shadow 17:54:16 20° 62° (ENE) 1,941 5.0 -14.4°
